Date,TemperatureHighF,TemperatureAvgF,TemperatureLowF,DewpointHighF,DewpointAvgF,DewpointLowF,HumidityHigh,HumidityAvg,HumidityLow,PressureMaxIn,PressureMinIn,WindSpeedMaxMPH,WindSpeedAvgMPH,GustSpeedMaxMPH,PrecipitationSumIn
2013-1-1,17,5,-4,11,-4,-100,85,77,72,30.42,30.22,7,-157,8,0.00
2013-1-2,30,19,6,27,5,-100,90,77,82,30.25,30.11,10,6,13,0.00
2013-1-3,30,18,10,26,14,6,88,84,77,30.45,30.24,15,-65,16,0.00
2013-1-4,31,21,17,22,10,-100,86,76,68,30.34,30.20,12,7,14,0.00
2013-1-5,32,23,18,26,16,-100,87,80,75,30.21,30.00,17,9,20,0.00
2013-1-6,20,13,11,14,1,-100,88,78,79,30.38,30.20,14,6,17,0.00
2013-1-10,36,34,34,34,32,30,95,92,81,29.98,29.76,9,7,13,0.08
2013-1-11,45,38,31,44,37,29,97,95,91,29.75,29.44,16,7,16,0.00
2013-1-12,31,18,10,28,8,-100,90,73,68,30.20,29.64,20,-59,24,0.00
2013-1-13,18,10,5,9,-4,-100,82,70,60,30.43,30.16,12,-42,16,0.00
2013-1-14,10,9,9,5,5,4,83,82,80,30.51,30.42,4,-85,5,0.00
2013-1-16,46,38,24,36,31,18,88,76,66,30.29,29.93,13,10,18,0.00
2013-1-17,39,24,15,29,13,-100,89,69,55,30.53,30.29,10,4,12,0.00
2013-1-18,50,38,28,35,31,25,90,74,54,30.35,29.88,19,11,23,0.00
2013-1-19,48,35,14,35,23,-100,84,68,53,30.34,29.82,23,12,29,0.00
2013-1-20,14,8,2,8,-21,-100,82,58,67,30.48,30.34,13,-42,14,0.00
2013-1-21,6,1,-6,-1,-19,-100,80,63,67,30.57,30.46,17,-161,26,0.00
2013-1-22,16,10,1,8,-2,-100,80,67,58,30.54,30.36,8,-124,10,0.00
2013-1-23,25,14,1,18,0,-100,80,68,65,30.66,30.24,17,-67,19,0.00
2013-1-24,18,7,0,6,-21,-100,75,51,52,30.71,30.31,16,-207,16,0.00
2013-1-25,34,21,10,24,10,-100,79,68,58,30.38,30.17,16,-138,19,0.00
2013-1-26,36,21,7,20,10,1,79,66,50,30.40,30.17,13,-140,16,0.00
2013-1-27,34,33,30,33,29,19,95,86,60,30.17,29.79,14,7,16,0.12
2013-1-28,37,35,33,36,34,32,97,96,95,29.95,29.62,10,4,13,0.02
2013-1-29,36,33,27,35,31,24,97,93,88,29.74,29.57,15,8,19,0.00
2013-1-30,27,15,20,24,-21,-100,91,59,86,29.75,29.65,20,17,26,0.00
2013-2-1,25,15,-1,20,7,-100,82,74,69,30.48,30.12,18,-88,20,0.00
2013-2-2,34,20,12,30,12,-100,92,78,68,30.29,30.07,17,-104,19,0.00
2013-2-3,35,25,14,28,16,-100,87,75,63,30.24,29.83,20,-40,22,0.01
2013-2-4,34,23,16,29,17,-100,88,80,71,30.10,29.82,13,7,17,0.00
2013-2-5,43,30,24,34,18,-100,91,75,61,30.15,29.85,16,-48,21,0.00
2013-2-6,45,35,26,37,31,23,93,86,73,30.15,29.93,15,-21,18,0.01
2013-2-7,37,31,26,34,28,22,93,88,85,30.30,29.94,15,9,18,0.00
2013-2-8,28,24,24,24,13,-100,90,79,83,30.42,30.26,13,-56,18,0.00
2013-2-9,40,31,26,34,26,-100,92,85,77,30.28,29.83,16,5,21,0.03
2013-2-10,43,35,29,40,33,25,96,91,81,29.83,29.27,21,14,29,0.11
2013-2-11,29,24,25,26,8,-100,86,73,80,30.19,29.63,21,13,25,0.00
2013-2-12,44,31,20,29,20,-100,89,71,47,30.20,29.93,14,6,21,0.00
2013-2-13,50,36,25,34,26,-100,89,72,47,29.93,29.71,12,6,18,0.01
2013-2-14,41,33,19,32,26,12,86,77,61,30.29,29.75,19,11,24,0.00
2013-2-15,28,19,13,17,10,-100,86,72,56,30.42,30.29,13,-49,14,0.00
2013-2-16,37,21,11,22,4,-100,86,65,45,30.40,30.13,8,-115,12,0.00
2013-2-17,48,32,20,30,18,-100,87,68,49,30.13,29.63,17,-3,26,0.00
2013-2-18,37,28,13,32,20,-100,89,75,64,30.02,29.61,24,-9,33,0.00
2013-2-19,20,10,4,6,-20,-100,76,49,50,30.49,30.03,23,-140,30,0.00
2013-2-20,24,11,-2,12,-5,-100,80,61,45,30.55,30.39,8,-191,10,0.00
2013-2-21,27,20,15,20,13,-100,90,77,54,30.42,29.96,13,-19,18,0.00
2013-2-22,25,20,15,20,13,-100,90,84,80,30.06,29.90,10,-28,14,0.00
2013-2-23,29,15,7,23,-6,-100,89,69,75,30.05,29.95,7,-93,7,0.10
2013-2-24,36,26,17,29,18,-100,91,82,74,30.15,30.00,5,3,7,0.10
2013-2-25,32,28,26,28,26,24,94,91,85,30.16,30.02,8,4,9,0.01
2013-2-26,31,27,24,27,24,22,94,89,82,30.01,29.86,12,-19,15,0.01
2013-2-27,35,26,22,28,14,-100,89,77,73,30.11,29.90,17,-8,21,0.00
2013-2-28,31,25,21,26,20,-100,90,84,79,30.27,30.11,12,-54,15,0.00
2013-3-1,27,23,21,23,14,-100,90,79,71,30.43,30.26,10,7,11,0.00
2013-3-2,30,22,13,22,12,-100,89,76,69,30.42,30.22,9,-38,9,0.01
2013-3-3,26,19,21,22,-2,-100,86,70,83,30.22,30.09,10,-212,14,0.00
2013-3-5,25,24,24,20,20,20,85,84,83,30.39,30.36,13,11,16,0.00
2013-3-6,29,24,21,22,17,-100,88,81,75,30.50,30.39,14,-36,17,0.00
2013-3-7,38,26,16,29,16,-100,90,78,68,30.42,30.26,14,9,20,0.00
2013-3-8,47,35,24,38,30,22,92,83,68,30.32,30.03,15,10,23,0.13
2013-3-9,42,39,35,41,37,34,96,94,92,30.03,29.65,16,10,22,0.49
2013-3-10,35,30,25,34,29,24,96,94,92,29.90,29.74,17,-1,23,0.09
2013-3-11,28,23,23,24,10,-100,93,79,78,29.97,29.86,15,-55,20,0.05
2013-3-12,32,25,20,26,11,-100,88,73,76,30.34,30.07,17,12,24,0.01
2013-3-13,28,22,12,23,17,9,89,82,74,30.52,30.35,11,-23,15,0.01
2013-3-14,43,35,25,36,24,-100,91,75,67,30.35,30.10,12,6,14,0.04
2013-3-15,46,38,33,41,35,31,95,89,79,30.10,29.77,11,5,11,0.00
2013-3-16,35,34,32,33,32,30,95,93,91,30.05,29.89,15,10,19,0.00
2013-3-18,21,20,19,14,13,12,75,74,72,30.06,30.05,15,-55,22,0.01
2013-3-19,33,21,14,23,3,-100,81,62,56,30.37,30.06,16,9,23,0.01
2013-3-20,27,16,12,17,-11,-100,79,55,57,30.43,30.22,17,-31,23,0.00
2013-3-21,33,21,10,21,12,-100,84,71,57,30.23,30.05,7,4,11,0.00
2013-3-25,34,32,26,26,24,21,81,74,66,30.36,30.24,15,11,17,0.01
2013-3-26,36,28,19,24,19,-100,87,73,59,30.42,30.34,10,5,12,0.00
2013-3-27,47,35,25,32,27,22,88,73,51,30.38,30.29,9,5,10,0.00
2013-3-28,53,40,30,39,29,-100,87,71,52,30.35,30.25,9,5,13,0.00
2013-3-29,39,38,38,34,33,33,83,82,82,30.28,30.28,7,6,8,0.00
2013-4-2,46,40,33,27,24,19,77,55,42,30.41,30.35,7,5,8,0.00
2013-4-3,51,38,28,32,25,-100,83,64,44,30.43,30.25,14,8,17,0.00
2013-4-4,58,44,31,40,32,26,82,64,36,30.26,30.10,11,7,15,0.00
2013-4-5,59,43,30,40,24,-100,88,58,35,30.22,29.78,16,9,20,0.00
2013-4-6,61,53,42,48,43,38,86,69,55,29.80,29.56,16,10,22,0.05
2013-4-7,61,45,30,47,36,-100,95,75,55,29.94,29.68,14,5,17,0.01
2013-4-8,74,59,48,54,49,45,93,73,40,29.81,29.62,12,5,15,0.02
2013-4-9,50,44,38,47,41,36,94,92,87,30.02,29.69,18,13,24,1.44
2013-4-10,38,36,34,37,34,32,95,93,91,30.01,29.80,15,8,22,0.34
2013-4-11,39,35,33,36,33,31,96,93,84,29.81,29.63,9,4,13,0.36
2013-4-12,38,33,32,33,27,-100,94,83,74,30.00,29.67,14,10,18,0.00
2013-4-13,49,39,28,37,31,25,89,74,55,30.04,29.83,10,6,13,0.00
2013-4-14,42,40,39,38,37,36,93,89,79,29.83,29.60,15,11,21,0.87
2013-4-15,47,41,34,34,32,30,84,69,59,30.12,29.93,13,9,19,0.00
2013-4-16,52,41,32,37,32,28,88,72,50,30.30,30.11,9,6,13,0.00
2013-4-17,43,40,37,39,37,35,95,88,74,30.25,29.72,16,8,21,1.08
2013-4-18,37,34,32,35,32,30,95,94,90,29.85,29.66,18,13,23,0.59
2013-4-19,41,33,26,31,25,-100,91,75,59,30.14,29.77,19,13,29,0.01
2013-4-20,46,36,24,29,25,20,86,66,42,30.33,30.14,12,5,13,0.00
2013-4-21,66,49,39,49,40,29,94,72,41,30.27,30.04,20,9,27,0.32
2013-4-22,49,40,32,48,39,30,96,93,90,30.19,29.98,16,8,19,0.52
2013-4-23,42,33,28,34,27,24,91,80,63,30.25,30.17,16,11,21,0.00
2013-4-24,56,39,25,39,28,22,88,69,35,30.22,30.04,17,8,25,0.00
2013-4-25,63,47,30,37,32,27,89,61,32,30.29,30.09,15,7,18,0.00
2013-4-26,72,59,46,49,43,38,79,58,36,30.18,30.05,18,10,26,0.00
2013-4-27,69,55,43,52,46,41,95,76,46,30.18,29.96,10,6,12,0.00
2013-4-28,79,63,45,53,47,43,91,62,30,29.96,29.68,15,10,20,0.00
2013-4-29,80,66,52,60,53,48,88,66,39,29.77,29.49,9,5,14,0.00
2013-4-30,76,67,53,61,51,44,83,59,38,29.90,29.45,20,11,30,0.15
2013-5-1,53,40,33,48,37,31,94,88,81,30.47,29.88,16,12,20,0.18
2013-5-2,34,33,33,32,32,31,95,94,92,30.55,30.43,8,2,9,0.04
2013-5-5,52,49,43,50,47,42,96,92,89,30.20,30.13,10,6,16,0.01
2013-5-6,69,56,42,57,50,41,96,81,58,30.16,30.04,7,4,13,0.00
2013-5-7,75,62,45,55,50,43,95,69,40,30.09,29.95,8,4,15,0.00
2013-5-8,70,61,57,58,54,49,94,77,55,29.98,29.91,13,4,22,0.31
2013-5-9,65,58,50,59,55,47,95,89,78,30.00,29.87,11,5,19,0.02
2013-5-10,68,56,42,53,45,37,93,70,40,30.08,29.98,11,7,19,0.00
2013-5-11,57,51,41,46,31,20,75,48,27,30.24,29.99,22,12,35,0.00
2013-5-12,64,49,33,30,25,22,71,43,21,30.30,30.15,10,4,16,0.00
2013-5-13,80,64,46,50,40,26,56,42,28,30.15,29.78,20,9,33,0.00
2013-5-14,100,82,61,59,49,41,76,38,14,29.78,29.53,24,10,42,0.00
2013-5-15,85,70,55,49,45,38,66,42,23,29.92,29.71,9,4,16,0.00
2013-5-16,85,70,55,62,53,47,92,57,30,29.89,29.74,13,6,23,0.08
2013-5-17,80,70,62,67,62,59,92,78,58,29.88,29.80,11,6,18,0.47
2013-5-18,83,72,61,64,61,58,90,70,50,29.91,29.70,13,7,21,0.00
2013-5-19,72,65,62,64,60,59,91,85,74,29.74,29.47,12,6,19,0.71
2013-5-20,65,65,65,60,60,60,84,84,84,29.53,29.52,3,3,8,0.00
2013-5-27,69,66,61,63,60,59,92,84,76,29.79,29.71,10,4,17,0.55
2013-5-28,75,67,60,67,62,59,96,84,66,29.72,29.63,7,3,14,0.04
2013-5-29,73,68,63,66,64,61,95,87,79,29.65,29.57,14,9,23,0.43
2013-5-30,72,66,63,65,62,60,94,85,72,29.62,29.46,15,11,27,0.19
2013-6-6,64,61,56,53,52,51,84,72,65,30.00,29.95,5,3,11,0.00
2013-6-13,80,70,57,58,55,51,88,60,37,30.07,29.95,6,3,12,0.00
2013-6-14,74,69,65,67,61,57,92,75,64,30.04,29.77,24,10,41,0.60
2013-6-15,78,70,64,71,64,60,92,82,68,29.92,29.81,12,5,29,0.08
2013-6-16,84,74,64,66,59,44,94,63,26,29.96,29.89,5,2,9,0.00
2013-6-17,86,74,62,62,57,52,83,58,35,29.98,29.90,11,4,20,0.00
2013-6-18,82,72,63,63,57,54,81,61,40,30.01,29.94,6,2,12,0.00
2013-6-19,84,74,64,64,61,57,87,65,42,30.01,29.91,12,7,21,0.00
2013-6-20,88,78,67,68,66,63,85,67,49,29.95,29.83,16,11,31,0.00
2013-6-21,80,77,72,72,70,65,82,78,71,29.89,29.77,13,10,27,0.00
2013-6-24,72,72,70,68,68,67,91,87,84,29.77,29.75,8,7,14,0.98
2013-6-25,87,77,70,74,70,61,93,79,54,29.77,29.65,16,6,29,0.22
2013-6-26,89,80,72,76,68,59,94,71,41,29.83,29.61,12,5,24,0.00
2013-6-27,85,76,69,68,64,59,84,68,43,29.93,29.83,10,4,18,0.02
2013-6-28,84,75,65,64,58,51,83,59,34,29.90,29.79,19,9,34,0.00
2013-6-29,77,69,62,62,58,54,82,68,49,29.93,29.79,14,6,27,0.00
2013-6-30,77,66,56,57,53,48,91,65,39,30.10,29.93,8,3,22,0.00
2013-7-1,83,70,54,61,53,49,86,59,34,30.16,30.09,7,2,15,0.00
2013-7-2,83,71,60,60,56,51,83,60,35,30.13,30.02,6,2,13,0.00
2013-7-3,83,71,57,62,56,53,87,63,40,30.37,20.36,7,2,14,0.00
2013-7-4,87,76,64,62,59,56,79,59,35,30.36,30.26,13,7,27,0.00
2013-7-5,89,78,66,68,63,60,80,62,45,30.30,30.20,14,8,28,0.00
2013-7-6,92,80,69,70,66,62,81,62,43,30.26,30.16,15,9,26,0.00
2013-7-7,90,82,73,73,70,64,80,67,56,30.25,30.19,14,6,23,0.00
2013-7-8,92,83,74,78,74,71,91,77,60,30.31,30.21,7,3,13,0.00
2013-7-9,93,82,73,78,74,70,92,76,56,30.33,30.21,10,4,25,0.15
2013-7-10,83,74,66,70,61,55,92,66,41,30.44,30.30,7,3,15,0.00
2013-7-11,86,75,64,62,60,56,78,60,39,30.48,30.34,10,6,18,0.00
2013-7-12,89,78,64,66,64,60,86,64,45,30.39,30.30,14,10,25,0.00
2013-7-13,85,77,70,70,66,61,77,69,61,30.39,30.31,15,9,25,0.00
2013-7-14,87,78,68,66,64,62,85,64,46,30.51,30.39,12,8,22,0.00
2013-7-15,79,79,78,72,71,71,80,79,77,30.53,30.17,8,7,13,0.00
2013-7-16,92,82,72,74,71,69,92,72,49,30.24,30.17,7,4,13,0.00
2013-7-17,94,84,74,75,72,69,89,68,44,30.28,30.15,9,3,19,0.00
2013-7-18,93,84,74,74,71,70,87,68,49,30.16,29.89,14,7,26,0.00
2013-7-19,94,83,69,74,67,60,76,60,37,29.92,29.83,10,6,20,0.00
2013-7-20,86,76,61,67,62,58,91,66,45,29.99,29.88,5,1,10,0.00
2013-7-21,86,76,67,72,67,62,89,74,58,29.94,29.79,12,4,21,0.00
2013-7-22,93,80,69,76,70,66,95,74,47,29.86,29.70,12,6,23,0.00
2013-7-23,81,70,62,65,60,56,88,71,47,30.02,29.84,7,3,18,0.00
2013-7-24,83,70,55,64,59,53,93,70,48,30.10,30.01,5,2,12,0.00
2013-7-25,87,75,64,70,65,60,87,72,54,30.06,29.92,14,6,24,0.00
2013-7-26,75,68,57,67,59,52,96,73,53,30.11,29.95,14,6,26,0.00
2013-7-27,71,61,51,54,50,47,94,70,46,30.14,30.04,9,3,17,0.00
2013-7-28,76,64,49,54,50,46,89,65,43,30.10,30.04,9,4,20,0.00
2013-7-29,73,65,57,62,56,50,86,71,58,30.13,30.08,11,6,17,0.00
2013-7-30,70,69,67,67,66,65,94,91,88,30.12,30.10,1,0,4,0.01
2013-7-31,85,72,62,70,65,61,97,79,54,30.15,30.04,7,2,14,0.00
2013-8-1,88,73,60,68,63,58,92,72,41,30.10,29.91,10,3,16,0.00
2013-8-2,78,69,64,67,63,60,94,84,56,30.06,29.90,8,2,14,0.17
2013-8-3,79,69,59,63,59,55,94,73,49,30.22,30.06,5,2,11,0.00
2013-8-4,81,70,56,62,58,53,91,68,47,30.23,30.05,9,4,15,0.00
2013-8-5,84,74,66,72,68,61,95,82,60,30.04,29.84,13,5,24,0.08
2013-8-6,89,77,65,73,69,64,96,80,55,29.90,29.78,10,3,18,0.01
2013-8-7,80,71,64,71,65,61,93,83,57,30.00,29.82,7,3,13,0.00
2013-8-8,77,73,68,64,64,62,87,75,59,30.03,30.00,2,0,5,0.00
2013-8-9,68,67,65,65,64,62,95,90,85,30.07,30.02,5,2,9,0.00
2013-8-12,83,73,61,69,63,57,97,71,51,30.06,29.97,7,3,18,0.00
2013-8-13,78,66,55,63,56,53,94,73,43,30.16,30.05,6,2,14,0.00
2013-8-14,75,66,56,58,54,50,88,66,45,30.20,30.10,7,3,16,0.00
2013-8-15,65,63,60,58,56,54,92,80,68,30.11,30.08,6,3,13,0.02
2013-8-21,79,79,78,72,72,72,82,80,79,29.94,29.92,4,2,6,0.00
2013-8-22,84,75,69,72,69,67,92,81,61,30.03,29.92,17,5,32,0.02
2013-8-26,94,88,82,76,74,72,73,62,52,30.00,29.86,14,10,22,0.00
2013-8-27,95,85,77,75,72,68,79,65,48,29.88,29.79,14,9,25,0.00
2013-8-28,97,83,71,72,69,66,88,66,41,29.93,29.85,10,3,18,0.00
2013-8-29,84,82,79,72,72,71,78,72,65,29.86,29.84,4,3,7,0.00
2013-8-30,95,81,71,79,73,68,92,77,54,29.84,29.77,6,3,14,0.00
2013-8-31,92,77,63,71,66,61,96,73,39,29.83,29.73,4,1,9,0.00
2013-9-1,82,72,61,66,63,58,95,74,50,29.97,29.69,14,6,24,0.10
2013-9-2,78,65,53,60,55,52,96,75,45,30.07,29.97,6,2,13,0.01
2013-9-3,82,68,54,64,58,52,94,73,47,30.10,29.99,6,3,12,0.00
2013-9-4,89,76,64,66,63,60,87,66,41,30.11,30.02,8,4,16,0.00
2013-9-9,97,88,71,70,66,63,90,50,34,29.78,29.70,16,10,30,0.01
2013-9-10,90,79,70,69,65,62,81,63,48,29.97,29.78,10,5,17,0.00
2013-9-11,87,75,68,67,63,57,91,68,39,30.05,29.97,6,1,12,0.01
2013-9-12,78,68,57,61,53,48,88,61,36,30.20,30.05,10,3,20,0.00
2013-9-13,75,62,47,52,48,44,92,63,37,30.24,30.08,5,2,10,0.00
2013-9-14,76,64,50,58,49,44,82,62,38,30.09,29.85,14,7,29,0.01
2013-9-15,70,65,60,59,56,54,84,73,58,30.24,29.80,11,6,23,0.00
2013-9-16,72,59,50,57,52,48,96,79,51,30.35,30.22,9,4,15,0.00
2013-9-17,65,60,56,64,58,51,97,94,83,30.24,29.92,11,8,20,0.57
2013-9-18,89,76,65,72,68,64,97,78,51,29.92,29.67,16,10,32,0.00
2013-9-19,81,74,60,70,65,54,94,76,62,29.88,29.65,15,8,27,0.14
2013-9-20,68,58,48,54,49,45,91,75,52,30.00,29.88,11,6,21,0.00
2013-9-21,74,58,43,51,46,41,93,67,36,30.04,29.88,6,2,10,0.00
2013-9-22,80,66,53,58,53,48,86,66,40,29.91,29.80,14,8,26,0.00
2013-9-23,77,63,52,56,52,49,88,70,43,29.90,29.77,16,10,30,0.00
2013-9-24,72,62,56,62,56,52,95,81,63,29.91,29.80,8,3,14,0.29
2013-9-25,78,64,52,61,56,50,94,75,49,29.94,29.78,10,5,19,0.00
2013-9-26,84,71,60,64,61,58,95,75,46,29.85,29.76,17,11,29,0.00
2013-9-27,87,75,66,64,63,62,87,68,44,29.87,29.75,20,12,35,0.00
2013-9-28,70,62,52,65,55,45,95,79,57,30.02,29.66,14,8,26,0.21
2013-9-29,76,61,48,49,46,44,86,61,33,30.04,29.87,15,7,25,0.00
2013-9-30,80,66,54,54,51,48,84,62,38,29.88,29.66,17,10,30,0.00
2013-10-1,80,69,59,55,49,40,81,51,28,29.95,29.73,10,5,19,0.00
2013-10-2,84,70,56,66,53,39,81,56,42,29.99,29.80,12,6,22,0.00
2013-10-3,78,69,62,64,62,60,95,80,55,29.80,29.71,7,2,17,0.04
2013-10-4,74,67,60,70,64,56,97,89,75,29.89,29.62,18,8,30,0.07
2013-10-5,63,50,43,55,40,36,79,67,51,29.87,29.76,16,10,29,0.01
2013-10-6,50,46,42,49,44,37,94,91,74,29.96,29.75,14,6,31,0.01
2013-10-7,73,56,42,52,44,40,91,67,35,30.05,29.97,11,4,18,0.01
2013-10-8,67,55,48,50,45,43,82,70,44,30.00,29.91,13,7,21,0.00
2013-10-9,76,63,51,54,50,46,90,65,35,30.03,29.96,13,9,24,0.00
2013-10-10,79,64,50,56,51,47,88,65,40,30.02,29.82,16,9,25,0.00
2013-10-11,74,63,55,62,56,46,88,77,61,29.83,29.63,22,12,36,0.00
2013-10-12,64,54,45,46,39,33,83,60,33,30.26,29.83,13,6,25,0.00
2013-10-13,65,51,37,39,35,32,83,57,34,30.45,30.27,7,2,11,0.00
2013-10-14,61,52,44,50,40,35,94,65,42,30.35,29.75,16,10,29,0.22
2013-10-15,57,49,46,56,46,41,96,88,83,29.96,29.72,17,12,32,0.38
2013-10-18,51,46,38,36,32,30,87,59,47,30.10,29.97,9,5,15,0.00
2013-10-19,56,45,35,41,36,32,90,72,47,29.97,29.81,10,5,20,0.00
2013-10-20,62,49,40,44,38,32,83,69,51,29.99,29.71,15,8,33,0.00
2013-10-21,49,42,32,36,32,28,89,69,46,30.08,29.98,13,4,24,0.00
2013-10-22,43,41,36,42,39,35,96,92,77,29.97,29.91,5,2,13,0.06
2013-10-23,40,37,34,38,35,30,94,90,81,30.21,30.10,6,3,11,0.02
2013-10-24,47,38,31,36,31,28,92,77,53,30.41,30.21,11,6,21,0.07
2013-10-25,57,43,30,38,32,25,88,68,48,30.43,30.02,17,8,30,0.00
2013-10-26,50,43,34,37,32,28,83,66,48,30.20,29.98,14,7,22,0.00
2013-10-27,64,46,29,40,33,25,85,65,39,30.14,29.85,15,6,26,0.00
2013-10-28,52,43,36,40,35,32,86,76,61,30.32,30.02,11,7,25,0.00
2013-10-29,54,46,40,49,41,34,89,82,72,30.30,30.00,9,6,16,0.00
2013-10-30,64,54,45,59,52,44,98,93,80,30.00,29.70,16,7,28,0.12
2013-10-31,52,43,37,45,40,36,96,88,68,29.71,29.48,12,5,20,0.00
2013-11-1,57,46,40,43,40,37,89,78,54,29.93,29.54,15,8,27,0.00
2013-11-2,54,45,37,41,38,34,92,75,53,30.16,29.93,13,6,21,0.00
2013-11-3,57,47,35,40,35,32,87,67,40,30.12,29.81,23,13,39,0.00
2013-11-4,53,47,36,46,40,33,88,76,60,30.18,29.83,13,7,26,0.00
2013-11-5,42,38,32,40,36,30,96,91,82,30.20,29.89,14,7,25,0.85
2013-11-6,44,36,31,34,31,28,96,83,58,30.29,29.98,14,7,26,0.00
2013-11-7,44,35,27,35,29,25,95,79,50,30.38,30.27,11,4,19,0.00
2013-11-14,43,40,37,34,33,32,83,77,71,29.91,29.90,4,3,8,0.00
2013-11-15,56,43,33,41,35,30,90,75,51,29.91,29.66,12,5,20,0.00
2013-11-16,65,52,40,55,44,34,93,78,52,29.66,29.25,23,10,42,0.00
2013-11-17,50,44,38,44,38,34,94,81,65,29.99,29.34,13,6,20,0.25
2013-11-18,46,37,30,35,32,28,90,80,62,30.27,29.99,11,6,19,0.01
2013-11-19,57,43,32,38,32,29,89,68,41,30.27,29.94,19,13,31,0.00
2013-11-20,50,44,35,38,34,30,94,69,51,30.01,29.83,18,12,28,0.00
2013-11-21,35,28,21,33,26,19,97,90,79,30.58,30.01,15,10,27,0.00
2013-11-22,27,19,10,18,13,7,91,78,59,30.74,30.58,14,-28,23,0.00
2013-11-23,19,13,7,14,2,-100,84,71,60,30.96,30.72,14,-29,21,0.00
2013-11-24,28,18,7,18,9,-100,83,71,57,30.85,30.27,18,3,28,0.00
2013-11-25,43,32,25,32,25,18,83,74,63,30.26,30.13,18,-50,26,0.00
2013-12-4,16,15,14,12,11,10,84,83,82,30.01,29.93,16,14,28,0.01
2013-12-5,15,9,5,9,-7,-100,83,69,69,30.51,30.00,15,-46,33,0.00
2013-12-6,12,3,-2,2,-9,-100,80,70,64,30.82,30.51,14,-71,21,0.00
2013-12-7,12,3,-6,5,-14,-100,83,65,56,30.88,30.62,7,-234,12,0.00
2013-12-8,18,12,9,14,-4,-100,90,75,76,30.61,30.12,10,-100,16,0.00
2013-12-9,11,4,-3,6,-12,-100,89,70,68,30.36,30.10,17,9,28,0.00
2013-12-10,21,16,10,18,3,-100,91,71,68,30.31,30.06,15,-45,26,0.00
2013-12-11,19,3,-3,17,-23,-100,91,60,68,30.72,30.32,14,-97,19,0.00
2013-12-12,29,17,10,21,-2,-100,87,68,72,30.52,30.16,16,-29,22,0.03
2013-12-13,28,20,15,22,14,-100,90,84,79,30.19,30.02,10,-58,18,0.01
2013-12-14,20,15,9,16,8,-100,89,82,80,30.28,30.19,10,-42,19,0.00
2013-12-15,16,13,10,10,6,-100,88,80,76,30.25,30.12,7,-10,13,0.00
2013-12-16,30,20,9,26,14,-100,94,86,80,30.19,30.06,12,-23,23,0.00
2013-12-17,35,29,22,28,23,16,91,78,62,30.25,30.15,15,-21,28,0.00
2013-12-18,46,34,22,34,27,16,89,75,63,30.18,29.77,13,7,22,0.01
2013-12-19,34,26,20,29,23,18,92,87,81,29.95,29.80,14,-7,25,0.01
2013-12-20,20,17,18,18,6,-100,92,83,88,30.03,29.93,10,-22,16,0.00
2013-12-21,22,18,16,20,9,-100,91,82,84,29.99,29.89,10,-2,20,0.00
2013-12-22,21,14,4,18,4,-100,91,79,75,30.43,29.93,14,-4,24,0.00
2013-12-23,8,1,-6,-1,-24,-100,83,56,49,30.68,30.44,12,-202,21,0.00
2013-12-24,-5,-6,-6,-12,-12,-13,73,73,73,30.67,30.66,6,3,9,0.00
2013-12-26,28,27,27,23,23,23,86,85,84,30.26,30.26,4,3,7,0.01
2013-12-27,55,36,21,35,28,18,91,75,43,30.28,30.07,17,6,28,0.00
2013-12-28,55,38,15,35,29,11,86,73,45,30.09,29.75,23,11,39,0.00
2013-12-29,15,5,1,11,-17,-100,85,60,48,30.39,30.10,24,-321,34,0.00
2013-12-31,8,7,7,4,4,3,84,84,83,30.35,30.33,8,7,14,0.00
2014-1-1,7,4,2,4,-7,-100,86,77,79,30.52,30.31,10,-20,19,0.00
2014-1-2,6,0,-8,0,-20,-100,84,67,72,30.61,30.48,7,-32,12,0.00